Погода в Параку

Бенин     9°21′36″N   2°37′16″E
темп.,
°C
ветер,
м/с
пор.,
м/с
влажн.,
%
обл.,
%
осадки,
мм/ч
давл.,
гПа
погр.,
м
13 августа, сб
сб1301:00+22ююз259698 0.0 1013160
04:00+22ююз279885 0.1 1012278
07:00+21ю249941 0.0 1013149
10:00+25юз3481100 0.1 1014687
13:00+28юз237180 0.6 10131006
16:00+28з337655 2.5 1010763
19:00+24з229067 5.2 101142
22:00+23ю0196100 9.6 101332
14 августа, вс
вс1401:00+22юз3698100 12.7 1013260
04:00+21ююз2798100 1.9 1011318
07:00+22ююз2797100 5.1 1012314
10:00+23зюз51095100 0.3 1013622
13:00+23зюз4990100 0.3 1012641
16:00+24зюз3787100 0.3 1009580
19:00+22зюз3895100 5.8 1010299
22:00+21юз4898100 6.4 1012336
15 августа, пн
пн1501:00+21ююз4998100 8.1 1011408
04:00+21ююз4998100 0.4 1009501
07:00+21ююз3898100 0.5 1011544
10:00+21ююз3997100 0.1 1012636
13:00+23ююз499493 0.8 1011651
16:00+24ююз599189 2.4 1009887
19:00+22ююз499651 4.8 1010490
22:00+21ю4997100 0.3 1012615
16 августа, вт
вт1601:00+21ююз4997100 0.4 1012639
04:00+20ююз499796 0.1 1012597
07:00+20ююз3109797 0.1 1013589
10:00+22ююз4791100 0.3 1015642
13:00+24ююз4786100 1.9 1014775
16:00+25ююз4686100 1.5 1012821
19:00+22ю2695100 4.6 1013190
22:00+22ю2896100 2.4 1015289
17 августа, ср
ср1701:00+21ююз3897100 2.8 1015421
04:00+21ю379898 0.1 1014385
07:00+20ю279897 0.1 1015348
10:00+23ююз348684 0.0 1016544
13:00+27зюз237070 0.1 10141094
16:00+27зюз337424 1.1 1011869
19:00+23юз239132 3.3 101260
22:00+22зюз11935 0.3 101412